TimePDT,TemperatureF,Dew PointF,Humidity,Sea Level PressureIn,VisibilityMPH,Wind Direction,Wind SpeedMPH,Gust SpeedMPH,PrecipitationIn,Events,Conditions,WindDirDegrees,DateUTC
12:15 AM,72.3,20.3,14,29.98,10.0,NNW,5.8,-,N/A,,Clear,330,2013-07-21 07:15:00
12:35 AM,68.9,20.3,16,29.99,10.0,Calm,Calm,-,N/A,,Clear,0,2013-07-21 07:35:00
12:55 AM,66.6,22.8,19,29.99,10.0,East,6.9,-,N/A,,Clear,90,2013-07-21 07:55:00
1:15 AM,67.1,24.8,20,29.99,10.0,East,5.8,-,N/A,,Clear,100,2013-07-21 08:15:00
1:35 AM,65.1,27.1,24,29.99,10.0,East,8.1,-,N/A,,Clear,80,2013-07-21 08:35:00
1:55 AM,63.9,24.6,23,29.98,10.0,East,6.9,-,N/A,,Clear,100,2013-07-21 08:55:00
2:15 AM,62.6,27.7,27,29.99,10.0,East,6.9,-,N/A,,Clear,100,2013-07-21 09:15:00
2:35 AM,61.7,27.0,27,29.99,10.0,ESE,5.8,-,N/A,,Clear,110,2013-07-21 09:35:00
2:55 AM,61.0,26.6,27,29.99,10.0,East,6.9,-,N/A,,Clear,90,2013-07-21 09:55:00
3:15 AM,61.0,26.8,27,29.99,10.0,East,8.1,-,N/A,,Clear,90,2013-07-21 10:15:00
3:35 AM,60.3,25.7,27,29.99,10.0,ESE,3.5,-,N/A,,Clear,110,2013-07-21 10:35:00
3:55 AM,56.7,26.4,31,29.98,10.0,East,8.1,-,N/A,,Clear,90,2013-07-21 10:55:00
4:15 AM,58.6,25.9,29,29.98,10.0,ESE,10.4,-,N/A,,Clear,110,2013-07-21 11:15:00
4:35 AM,56.7,26.2,31,29.98,10.0,East,10.4,-,N/A,,Clear,100,2013-07-21 11:35:00
4:55 AM,56.8,25.7,30,29.99,10.0,East,10.4,-,N/A,,Clear,100,2013-07-21 11:55:00
5:15 AM,56.1,25.5,31,29.99,10.0,SE,12.7,-,N/A,,Clear,130,2013-07-21 12:15:00
5:35 AM,56.3,25.5,31,29.99,10.0,East,10.4,-,N/A,,Clear,90,2013-07-21 12:35:00
5:55 AM,54.5,24.8,32,30.00,10.0,ESE,11.5,-,N/A,,Clear,110,2013-07-21 12:55:00
6:15 AM,54.1,25.5,33,30.00,10.0,ESE,8.1,-,N/A,,Clear,120,2013-07-21 13:15:00
6:35 AM,55.6,25.5,31,30.00,10.0,ESE,12.7,-,N/A,,Clear,120,2013-07-21 13:35:00
6:55 AM,55.9,25.9,31,30.01,10.0,SE,10.4,-,N/A,,Clear,130,2013-07-21 13:55:00
7:15 AM,58.1,25.9,29,30.01,10.0,East,9.2,-,N/A,,Clear,100,2013-07-21 14:15:00
7:35 AM,60.1,26.1,27,30.01,10.0,ESE,11.5,-,N/A,,Clear,120,2013-07-21 14:35:00
7:55 AM,62.6,27.7,27,30.01,10.0,East,6.9,-,N/A,,Clear,100,2013-07-21 14:55:00
8:15 AM,65.3,26.6,23,30.01,10.0,ESE,8.1,-,N/A,,Clear,110,2013-07-21 15:15:00
8:35 AM,67.3,27.3,22,30.01,10.0,East,5.8,-,N/A,,Clear,100,2013-07-21 15:35:00
9:35 AM,74.1,21.0,14,30.01,10.0,ESE,3.5,-,N/A,,Unknown,120,2013-07-21 16:35:00
9:55 AM,76.5,15.1,10,30.00,10.0,Calm,Calm,-,N/A,,Clear,0,2013-07-21 16:55:00
10:15 AM,78.6,12.6,8,30.00,10.0,Calm,Calm,-,N/A,,Clear,0,2013-07-21 17:15:00
11:15 AM,83.1,6.6,5,29.99,10.0,Calm,Calm,-,N/A,,Clear,0,2013-07-21 18:15:00
11:35 AM,84.6,6.3,5,29.98,10.0,Calm,Calm,-,N/A,,Clear,0,2013-07-21 18:35:00
11:55 AM,84.7,-2.9,4,29.98,10.0,Calm,Calm,-,N/A,,Clear,0,2013-07-21 18:55:00
12:15 PM,86.0,3.0,4,29.97,10.0,Calm,Calm,-,N/A,,Clear,0,2013-07-21 19:15:00
12:35 PM,88.7,8.6,5,29.96,10.0,WNW,4.6,-,N/A,,Clear,300,2013-07-21 19:35:00
12:55 PM,89.6,2.1,4,29.96,10.0,West,9.2,-,N/A,,Clear,270,2013-07-21 19:55:00
1:15 PM,90.1,5.5,4,29.96,10.0,West,9.2,-,N/A,,Clear,280,2013-07-21 20:15:00
1:35 PM,90.9,3.7,4,29.95,10.0,WNW,10.4,-,N/A,,Clear,300,2013-07-21 20:35:00
1:55 PM,92.5,-6.2,4,29.95,10.0,West,9.2,-,N/A,,Clear,280,2013-07-21 20:55:00
2:15 PM,93.4,-5.8,4,29.94,10.0,West,9.2,-,N/A,,Clear,280,2013-07-21 21:15:00
2:35 PM,93.7,-12.1,4,29.94,10.0,West,10.4,17.3,N/A,,Clear,270,2013-07-21 21:35:00
2:55 PM,93.7,-2.2,4,29.94,10.0,WNW,10.4,17.3,N/A,,Clear,290,2013-07-21 21:55:00
3:15 PM,94.6,-0.9,4,29.93,10.0,WSW,9.2,19.6,N/A,,Clear,250,2013-07-21 22:15:00
3:35 PM,95.4,4.5,4,29.93,10.0,WNW,13.8,-,N/A,,Clear,290,2013-07-21 22:35:00
3:55 PM,96.4,7.3,4,29.92,10.0,WNW,16.1,-,N/A,,Clear,290,2013-07-21 22:55:00
4:15 PM,96.1,7.7,4,29.92,10.0,WNW,12.7,17.3,N/A,,Clear,290,2013-07-21 23:15:00
4:35 PM,95.5,8.1,4,29.91,10.0,West,13.8,-,N/A,,Clear,280,2013-07-21 23:35:00
4:55 PM,95.9,9.3,4,29.91,10.0,WNW,11.5,19.6,N/A,,Clear,290,2013-07-21 23:55:00
5:15 PM,95.7,9.9,4,29.90,10.0,West,12.7,-,N/A,,Clear,280,2013-07-22 00:15:00
5:35 PM,95.5,10.8,4,29.90,10.0,WNW,10.4,-,N/A,,Clear,290,2013-07-22 00:35:00
5:55 PM,94.8,10.2,4,29.90,10.0,West,12.7,17.3,N/A,,Clear,280,2013-07-22 00:55:00
6:15 PM,94.5,9.9,4,29.90,10.0,WNW,11.5,-,N/A,,Clear,300,2013-07-22 01:15:00
6:35 PM,93.4,8.8,4,29.90,10.0,NNW,11.5,18.4,N/A,,Clear,340,2013-07-22 01:35:00
6:55 PM,92.7,8.6,4,29.90,10.0,NNW,12.7,16.1,N/A,,Clear,330,2013-07-22 01:55:00
7:15 PM,91.0,7.5,4,29.91,10.0,NNW,12.7,-,N/A,,Clear,330,2013-07-22 02:15:00
7:35 PM,89.4,8.4,5,29.91,10.0,NNW,9.2,-,N/A,,Clear,330,2013-07-22 02:35:00
7:55 PM,88.3,8.6,5,29.92,10.0,NW,9.2,17.3,N/A,,Clear,320,2013-07-22 02:55:00
8:15 PM,85.5,9.5,6,29.92,10.0,NW,5.8,-,N/A,,Clear,320,2013-07-22 03:15:00
8:35 PM,82.8,9.0,6,29.93,10.0,WNW,4.6,-,N/A,,Clear,300,2013-07-22 03:35:00
8:55 PM,81.3,9.5,7,29.94,10.0,SSW,4.6,-,N/A,,Clear,210,2013-07-22 03:55:00
9:15 PM,79.5,9.5,7,29.94,10.0,West,3.5,-,N/A,,Clear,280,2013-07-22 04:15:00
9:35 PM,81.5,9.5,7,29.95,10.0,Calm,Calm,-,N/A,,Clear,0,2013-07-22 04:35:00
9:55 PM,81.1,9.9,7,29.95,10.0,Calm,Calm,-,N/A,,Clear,0,2013-07-22 04:55:00
10:15 PM,79.7,10.2,7,29.95,10.0,Calm,Calm,-,N/A,,Clear,0,2013-07-22 05:15:00
10:35 PM,78.1,10.8,8,29.96,10.0,Calm,Calm,-,N/A,,Clear,0,2013-07-22 05:35:00
10:55 PM,77.7,14.0,9,29.96,10.0,NW,3.5,-,N/A,,Clear,320,2013-07-22 05:55:00
11:15 PM,74.8,22.3,14,29.96,10.0,NW,5.8,-,N/A,,Clear,320,2013-07-22 06:15:00
11:35 PM,71.8,19.6,14,29.96,10.0,East,4.6,-,N/A,,Clear,80,2013-07-22 06:35:00
11:55 PM,68.9,19.0,15,29.97,10.0,East,6.9,-,N/A,,Clear,90,2013-07-22 06:55:00